User: anonymous   Login
Location: Unspecified
(0.0000°N, 0.0000°E)
Time: 03:51:23
(UTC+01:00)
Language:

Cosmos 1933 - Orbit

View from above orbital plane
View from above orbital plane
View from above satellite
View from above satellite

Ground track
Ground track

The orbit data is extracted from the following two-line orbital elements,

1 18958U 88020A   17050.91457337 +.00000315 +00000-0 +21209-4 0  9998
2 18958 082.5283 216.9890 0010724 328.1436 031.9140 15.03146797552741
Epoch (UTC): 19 February 2017 21:56:59
Eccentricity: 0.0010724
inclination: 82.5283°
perigee height: 550 km
apogee height: 564 km
right ascension of ascending node: 216.9890°
argument of perigee: 328.1436°
revolutions per day: 15.03146797
mean anomaly at epoch: 31.9140°
orbit number at epoch: 55274

The dashed part of the orbit path shows where the satellite is in the earth's shadow,  

DLR